Theta_e
311 311 311 310 310 311 312 311 311 311 311 311 311 311 311 312 312 312 312 312 312 312 313 313 313 314 313 313 313 314 314 313 314 313 313 315 310 310 314 315 315 316 318 319 318 318 315 314 314 313 315 316 315 316 315 316 316 320 338 346 341 341 342 341 343 342 345 345 341 342 345 348 345 340 338 337 336 337 337 336 336 336 335 336 335 334 335 335
311 311 311 310 310 310 311 311 312 311 311 311 311 312 311 312 311 310 311 311 312 312 313 313 313 314 313 314 313 313 314 313 313 313 316 314 311 310 311 315 316 317 319 318 319 319 316 314 313 314 318 318 314 313 314 314 316 329 345 347 341 344 341 339 339 337 342 343 341 343 343 343 342 339 338 338 337 336 338 337 335 336 336 335 335 335 335 334
310 310 310 310 310 310 310 311 312 312 312 312 312 312 312 312 312 311 311 311 312 312 313 313 313 313 313 314 313 313 313 312 316 321 318 315 314 308 311 315 317 318 318 319 320 319 316 314 313 316 318 317 316 312 312 314 313 326 348 353 345 344 340 338 339 339 343 343 342 342 341 341 338 338 339 337 336 335 338 338 337 337 337 337 335 334 334 333
310 310 310 310 309 310 310 310 310 311 311 312 312 312 312 312 312 312 312 312 312 312 312 312 312 312 313 313 313 313 311 314 325 324 314 320 315 308 312 314 317 318 317 319 319 317 315 313 314 317 317 317 319 313 313 319 317 328 347 352 342 343 344 340 340 343 342 339 341 342 340 339 336 337 338 337 338 337 336 338 339 337 336 337 335 333 332 332
310 310 310 310 310 310 310 310 309 310 310 310 311 311 312 312 312 312 312 312 312 312 311 311 312 312 313 313 314 312 313 319 322 319 315 318 312 310 312 311 315 317 316 320 319 316 315 314 315 318 317 317 318 313 313 321 329 339 340 341 340 345 349 340 337 341 338 338 341 341 339 339 338 336 335 336 339 338 333 335 338 337 335 335 334 332 331 331
310 309 310 310 310 310 310 310 310 310 309 310 310 310 311 311 312 312 312 312 311 311 311 312 312 313 313 313 313 313 317 320 316 318 316 313 310 312 312 312 316 316 316 320 318 316 316 315 315 318 318 317 317 320 324 327 336 344 337 338 342 342 345 337 336 338 336 340 341 339 338 339 340 337 333 334 337 335 333 333 336 335 333 332 332 331 331 330
310 310 310 310 310 310 310 310 310 310 310 310 310 310 310 310 311 311 311 311 311 311 311 312 312 313 313 312 314 314 318 322 317 317 315 310 311 312 312 313 315 314 318 318 317 319 317 315 315 318 318 318 324 331 336 334 337 346 341 340 341 338 340 338 338 340 339 341 338 337 338 338 341 339 334 335 335 333 333 333 332 331 330 330 332 331 330 329
310 310 310 310 310 310 310 310 309 310 310 309 309 310 310 309 310 310 311 311 310 311 312 312 313 313 313 314 316 316 319 323 318 318 315 310 313 313 313 314 313 315 318 317 318 319 315 314 315 317 319 323 331 336 337 336 339 345 341 337 338 338 337 336 338 339 339 337 335 339 340 337 338 337 334 336 335 331 331 331 330 330 330 330 332 332 330 329
310 310 310 310 310 310 310 309 309 311 310 309 309 310 311 310 310 310 311 311 310 311 312 312 313 313 314 315 316 318 319 318 316 319 316 311 313 313 313 314 313 315 316 316 318 316 313 314 317 316 318 325 334 335 335 341 343 341 341 338 338 337 334 335 338 337 337 334 335 340 337 336 336 334 335 336 333 330 329 329 329 330 331 331 331 331 330 329
310 310 310 310 310 310 310 310 309 310 310 310 310 311 311 310 310 310 310 311 311 312 312 313 314 313 315 316 317 319 317 316 314 317 317 313 311 310 313 315 316 316 316 316 317 315 312 314 316 315 318 327 336 336 335 341 341 336 337 337 336 337 336 337 338 336 337 333 334 339 336 336 336 335 338 336 331 331 330 330 330 330 330 330 330 331 329 328
310 310 310 310 310 309 310 310 310 310 310 311 311 311 310 310 311 310 310 312 312 312 312 312 314 314 315 316 318 319 318 317 316 316 316 313 310 311 312 315 318 317 316 317 316 315 314 313 313 315 321 331 338 337 335 336 336 333 336 336 335 338 335 336 337 335 338 334 332 336 336 336 336 337 338 335 331 331 331 332 331 330 331 331 330 331 329 328
310 310 310 310 310 310 309 310 310 310 310 311 311 310 310 310 311 310 310 311 311 311 312 313 314 315 315 317 319 320 318 318 317 318 316 313 313 315 315 316 318 317 317 316 315 316 316 312 313 315 321 333 338 338 336 332 333 335 338 339 336 338 336 334 336 336 337 336 333 333 336 338 337 336 335 332 332 331 332 332 331 331 331 331 330 330 330 329
310 310 310 310 310 310 309 309 310 310 310 310 310 310 310 310 310 311 311 311 311 311 312 313 314 314 315 322 320 316 317 315 315 318 317 314 316 317 316 316 316 316 317 316 315 316 315 314 314 313 320 334 336 335 335 332 336 339 339 341 338 339 339 334 336 336 334 336 334 331 338 342 335 334 334 331 331 332 333 333 332 332 331 331 330 329 330 329
310 310 310 310 310 309 309 309 309 310 310 310 310 310 310 309 310 311 310 311 311 312 313 313 315 314 317 324 316 313 317 314 316 319 317 316 317 317 315 316 317 316 316 316 314 313 314 313 311 312 322 334 333 332 336 337 342 341 339 341 339 341 340 335 337 338 334 335 334 333 343 344 333 335 336 330 331 333 333 333 332 331 331 331 330 329 330 329
310 310 310 310 309 309 309 309 309 309 310 310 310 309 310 310 310 310 310 311 311 312 313 313 315 315 319 327 320 319 321 317 320 319 316 316 316 316 315 316 316 316 315 315 312 311 313 313 315 322 327 331 332 335 340 342 344 342 340 342 341 341 338 336 337 338 337 336 332 335 345 341 332 336 336 330 330 332 333 332 332 331 330 331 330 330 331 331
310 309 310 309 309 309 309 310 309 310 310 310 310 310 310 310 310 310 311 311 312 313 313 315 315 315 323 332 324 322 322 320 320 318 317 317 315 315 315 315 315 315 314 312 312 312 312 316 323 330 332 332 334 337 341 343 344 342 343 345 343 341 339 338 337 336 338 337 333 336 340 337 334 336 335 332 330 331 332 332 332 332 332 332 331 331 332 331
309 309 309 310 310 310 310 311 310 310 310 310 310 310 310 310 310 310 311 311 312 313 314 315 315 316 326 326 319 321 322 319 318 318 318 318 315 314 314 314 315 317 315 312 313 313 315 323 328 332 337 337 336 341 343 340 341 340 341 344 341 340 341 341 340 336 337 339 337 337 337 336 334 334 334 332 331 330 332 333 333 332 332 333 332 332 332 331
309 309 308 309 311 313 314 313 312 311 310 310 311 311 311 311 311 312 313 313 312 314 315 315 316 322 324 318 317 319 321 318 317 316 316 317 315 313 314 315 316 319 319 318 317 316 323 332 334 338 341 337 335 346 349 340 342 344 342 341 338 338 340 342 343 338 336 340 341 339 337 335 333 334 335 332 331 331 332 333 333 333 333 333 333 333 333 331
310 309 308 309 311 314 316 316 315 314 312 311 312 312 312 312 312 314 314 314 318 326 328 323 324 327 320 320 322 320 319 317 316 316 314 315 314 313 314 314 317 318 320 328 324 321 333 335 333 340 340 336 336 344 348 344 347 349 345 344 344 341 341 342 342 337 336 341 342 339 337 335 333 333 334 332 331 331 332 332 333 334 333 332 333 333 333 333
310 309 308 308 310 312 314 317 318 315 311 311 312 313 317 320 322 321 316 317 321 326 329 329 328 329 326 326 325 321 319 316 316 317 315 315 314 315 316 315 321 322 323 330 325 324 338 340 337 341 342 339 337 337 341 342 345 346 344 343 343 341 341 339 338 336 336 341 339 335 334 333 333 333 333 332 332 332 332 333 333 334 334 333 334 334 334 334
309 309 309 308 309 310 311 314 315 314 312 311 313 319 326 329 331 327 323 324 322 319 325 330 326 326 326 324 324 322 319 318 319 318 317 316 316 318 318 319 324 326 325 328 328 331 337 336 336 341 341 337 334 337 341 342 344 346 345 343 340 339 339 337 337 336 334 338 338 332 333 333 331 332 332 332 333 333 333 333 333 334 334 333 333 334 334 333
310 309 309 308 308 309 310 311 312 312 312 311 314 320 325 325 325 323 322 326 324 318 320 324 321 322 322 320 322 323 321 319 319 318 317 316 318 319 319 321 323 324 327 330 336 340 335 332 334 334 333 332 332 336 342 344 346 347 344 341 340 340 339 335 335 336 336 339 339 333 336 335 330 331 331 332 333 332 331 332 332 333 334 334 333 334 333 331
311 310 308 308 307 307 309 309 310 311 312 312 313 318 323 321 323 322 319 324 326 321 320 324 323 324 325 322 322 322 321 320 320 319 316 319 322 319 320 322 322 323 328 332 334 333 331 333 332 328 328 332 334 336 340 343 343 346 344 342 341 339 341 341 336 336 337 337 336 336 339 337 332 334 333 332 332 332 332 332 331 332 334 334 332 332 333 331
312 311 309 308 307 307 309 309 309 310 311 311 313 319 320 321 323 321 321 328 327 321 324 324 323 327 327 324 322 322 320 318 321 319 316 326 327 325 326 321 325 330 328 329 329 328 330 330 326 327 329 332 336 337 339 340 339 339 342 346 344 337 341 344 339 339 338 335 335 338 344 342 336 337 336 333 332 332 333 333 332 331 332 332 331 331 332 330
311 311 310 309 308 309 308 309 310 311 311 311 315 319 319 319 320 318 323 335 326 317 323 320 322 327 324 323 321 320 321 319 323 321 318 326 328 332 332 319 329 337 325 325 329 328 331 327 324 328 328 329 337 339 337 339 339 336 338 343 342 338 341 341 339 341 344 342 337 337 345 345 338 336 336 334 333 332 333 334 334 332 331 331 331 332 331 328
312 312 311 309 309 309 311 314 313 311 313 315 318 318 317 318 320 317 325 340 327 318 323 322 327 329 321 323 320 318 323 319 321 322 319 322 322 327 327 317 328 331 322 326 329 329 330 325 325 327 328 331 334 336 335 335 339 337 335 337 340 342 342 339 339 343 346 343 336 336 344 345 341 339 337 334 334 333 332 333 334 332 332 332 330 331 331 327
312 312 311 310 310 310 314 319 314 313 320 320 317 317 317 320 320 318 328 338 328 320 322 323 332 332 318 319 320 323 326 322 327 327 319 321 319 320 323 320 322 320 322 326 323 326 327 324 329 328 329 334 333 337 336 332 338 338 332 333 341 343 339 337 340 344 344 339 335 338 341 341 344 342 335 333 334 333 332 332 333 332 332 332 330 330 330 327
312 312 311 310 310 309 311 315 312 314 321 319 317 317 320 323 319 323 336 335 325 320 321 323 326 323 315 317 322 328 326 325 338 336 320 319 319 317 321 320 319 320 324 323 320 328 326 324 334 332 331 335 336 339 333 330 340 336 330 333 337 338 337 339 344 346 343 338 339 340 336 338 346 342 332 332 335 334 333 331 331 332 332 331 330 329 330 327
312 313 313 311 310 309 309 310 311 317 317 316 316 317 322 321 319 331 341 329 320 320 325 329 325 321 320 317 318 323 321 320 333 333 322 319 318 318 319 318 318 319 320 320 321 327 324 324 332 333 337 337 332 330 327 333 341 332 329 333 334 336 339 343 347 347 343 342 344 341 337 340 347 342 333 334 337 335 333 330 329 331 331 331 330 329 330 327
312 314 315 312 309 309 309 308 314 317 316 314 317 320 321 321 329 342 336 323 322 324 326 329 325 325 325 319 317 320 319 318 323 323 321 321 318 319 320 318 319 321 325 325 324 326 325 326 329 329 334 333 328 327 328 333 335 331 333 334 334 341 344 346 347 343 341 345 345 339 337 338 343 344 337 335 338 336 333 332 330 329 330 331 330 330 330 328
312 313 315 313 310 309 311 316 317 315 315 314 318 321 320 325 340 343 328 321 329 330 326 326 326 327 328 325 323 322 318 318 320 320 324 323 320 321 320 322 328 331 338 335 324 326 328 325 324 324 328 330 329 331 330 331 332 336 342 339 337 342 343 345 346 342 343 345 342 336 334 335 341 346 340 334 336 336 334 333 331 329 330 330 330 330 329 327
312 313 314 313 311 309 314 321 318 316 317 317 320 326 329 334 336 333 327 324 328 328 325 327 328 328 330 330 329 326 321 320 320 321 323 321 321 322 320 328 335 327 330 333 325 326 332 328 324 323 327 329 331 333 331 333 336 337 340 342 342 342 342 347 346 343 346 343 337 334 334 336 340 342 338 334 333 334 334 333 331 329 329 330 330 330 329 327
311 313 314 313 313 313 315 318 317 318 320 319 324 336 341 338 332 329 331 329 325 324 325 326 329 330 331 330 329 326 323 322 323 321 320 320 321 321 321 329 331 321 324 328 324 325 329 330 326 324 328 328 332 339 336 335 337 334 335 342 346 345 347 350 345 338 338 338 335 335 337 341 340 336 337 338 332 331 331 331 331 329 328 330 330 330 329 326
311 313 314 314 314 315 317 319 319 322 321 321 332 344 337 332 330 328 332 332 327 327 328 327 331 335 333 330 328 326 323 322 323 323 325 324 322 323 327 325 322 328 337 329 323 326 325 326 328 325 329 329 329 337 337 335 336 334 336 338 341 346 345 342 340 336 334 336 337 334 336 343 340 331 335 338 330 328 329 330 331 330 329 330 330 330 328 326
312 313 315 315 316 318 318 320 322 323 322 328 343 348 334 328 329 329 332 335 330 329 330 329 334 340 337 334 331 325 322 321 323 326 328 325 323 327 330 325 321 328 335 324 322 329 324 326 333 327 326 329 328 330 332 334 334 332 332 333 333 340 342 334 333 337 336 337 340 337 338 343 339 330 332 333 330 328 329 331 333 333 331 331 331 330 327 326
312 316 318 317 318 321 319 322 327 324 327 340 344 337 332 329 331 332 331 331 328 329 333 333 335 338 335 336 336 329 324 323 324 326 326 324 325 326 327 327 324 324 329 330 329 330 325 325 332 327 324 327 328 329 330 330 333 333 329 332 332 332 340 336 328 332 334 334 339 336 337 341 334 327 333 336 335 332 331 333 333 333 333 332 332 330 327 326
312 318 322 320 321 321 319 325 327 325 336 351 341 330 331 331 332 335 334 330 328 332 340 336 330 331 332 334 337 334 328 326 325 323 325 324 321 322 326 327 322 321 327 333 328 326 327 328 331 327 321 324 326 327 329 326 332 339 334 335 332 324 333 339 331 334 334 333 339 336 336 342 334 329 335 338 339 335 332 334 334 333 333 332 332 330 327 326
312 318 323 323 323 322 323 326 323 331 349 349 336 332 333 330 327 332 336 330 328 336 341 334 326 327 331 332 334 335 330 328 329 326 326 326 321 321 325 324 322 321 323 325 324 324 326 325 330 330 322 321 326 328 331 326 327 337 336 333 329 326 332 334 330 336 333 328 337 338 335 335 334 340 340 336 344 342 333 334 335 333 333 331 331 330 327 326
314 323 327 323 324 324 325 326 324 339 352 340 334 335 331 329 328 330 333 329 331 338 335 331 329 328 330 332 333 335 331 328 331 329 326 325 322 320 322 322 324 324 322 324 327 332 332 324 325 330 323 322 328 330 333 332 326 327 328 328 331 334 336 332 328 332 330 327 334 336 335 333 337 348 346 338 348 346 334 335 335 332 332 331 330 330 327 325
319 330 331 321 324 327 324 324 330 347 346 330 336 340 327 326 329 328 330 329 330 332 332 335 333 328 332 333 329 332 333 332 332 329 327 325 321 322 324 323 324 326 325 324 327 335 334 322 324 333 325 321 328 329 333 336 330 327 327 327 329 329 327 327 328 327 328 333 336 333 332 339 344 346 343 340 346 342 335 336 334 331 331 331 330 330 328 325
320 331 330 321 324 327 326 329 333 343 342 330 332 334 325 327 329 329 333 332 329 327 333 341 336 330 335 333 328 330 336 338 335 328 327 325 323 325 324 324 325 324 325 327 330 335 332 326 332 335 323 325 335 333 330 333 334 334 333 331 333 332 328 327 330 331 329 330 335 331 327 338 347 340 338 339 337 335 333 332 332 331 331 331 331 330 328 326
325 329 325 320 323 327 334 338 330 332 339 333 328 327 326 329 329 328 330 331 332 331 334 339 336 335 338 332 330 334 334 335 334 328 326 325 326 327 323 323 325 323 324 326 325 333 340 337 331 328 328 333 334 325 322 326 331 332 331 332 335 337 335 330 330 335 332 325 329 329 325 339 354 345 338 337 332 331 330 328 330 331 330 331 331 330 329 327
334 329 320 318 323 329 335 337 331 332 337 332 327 326 327 330 330 328 329 332 334 332 333 336 333 332 333 330 331 334 330 331 330 327 328 329 329 330 326 325 326 323 324 326 323 330 341 336 323 327 343 345 332 326 326 325 327 326 326 331 334 335 338 337 337 339 333 328 330 327 326 342 355 346 338 335 332 331 330 328 329 329 330 331 330 331 331 328
337 328 324 321 320 326 332 332 332 333 333 333 331 327 327 330 330 328 330 334 335 334 336 337 331 327 329 331 331 330 328 328 328 327 329 329 329 332 330 328 328 324 323 329 329 326 331 334 328 327 336 336 331 334 335 330 328 329 331 333 335 338 337 333 334 333 327 330 334 328 328 343 350 345 343 340 334 333 333 331 330 330 331 331 330 331 330 328
328 324 326 325 321 324 328 332 340 340 334 334 331 328 330 329 328 331 333 334 336 338 337 332 330 331 332 333 334 333 331 327 325 329 331 331 333 334 331 329 329 327 329 337 334 325 329 338 336 329 327 327 328 332 338 336 330 329 331 329 330 334 333 329 329 327 325 329 330 329 333 342 348 348 348 347 340 335 334 333 331 330 331 330 330 331 331 329
323 325 329 330 330 332 329 330 341 343 336 337 330 325 331 331 327 331 334 332 334 336 334 330 331 332 333 337 340 338 334 329 326 330 332 333 335 332 328 330 329 329 336 340 338 336 336 335 339 340 333 329 333 339 341 335 326 325 328 327 330 333 334 334 330 328 332 331 330 339 339 332 337 345 346 351 348 339 335 334 331 331 331 330 330 330 330 328
331 332 331 330 332 336 334 331 339 339 329 333 331 324 330 333 329 331 330 328 331 333 332 331 332 331 332 338 341 336 334 334 332 331 331 332 334 332 330 331 328 331 338 334 332 338 333 324 331 339 334 333 339 340 335 327 323 329 330 326 332 337 334 331 328 331 335 328 329 348 343 326 333 347 343 345 350 345 340 336 332 332 331 330 331 331 330 329
330 330 328 326 325 333 335 331 338 341 331 330 329 326 332 335 333 333 329 328 332 330 328 331 333 334 335 334 336 335 334 335 334 334 334 333 334 336 336 331 326 328 333 329 330 339 332 321 324 327 330 340 341 334 332 329 327 332 333 330 333 338 334 328 330 337 334 324 330 348 343 331 342 355 345 341 346 343 338 333 331 332 331 330 331 331 331 330
330 331 326 324 326 334 335 327 331 340 336 334 334 330 335 338 334 332 329 330 335 330 327 332 333 334 336 336 337 339 337 333 330 334 338 334 332 336 336 335 331 327 329 331 332 336 330 323 326 325 325 335 340 335 333 331 328 328 332 334 336 339 336 329 334 341 335 326 334 344 343 340 344 347 342 338 338 336 334 333 333 333 332 332 331 331 331 330
327 328 326 332 337 334 333 331 334 340 338 337 335 328 333 339 334 330 330 330 333 332 330 333 334 334 336 340 341 338 336 336 333 333 337 334 334 337 334 334 335 330 332 332 329 330 326 323 331 332 325 333 343 342 338 334 329 326 329 334 334 332 331 328 334 340 332 327 336 340 340 343 343 338 336 336 335 336 337 336 335 335 333 332 331 330 330 329
315 316 319 335 341 332 332 335 335 341 340 337 335 328 330 337 333 331 331 328 328 332 333 334 337 336 334 336 338 334 335 340 337 333 334 333 334 338 334 332 331 329 335 334 328 334 332 325 333 335 326 331 338 339 345 342 327 324 332 336 334 332 332 332 335 337 333 332 337 332 329 340 346 336 331 334 336 339 340 339 338 338 335 333 333 331 329 329
311 314 315 327 334 328 332 336 331 335 336 332 334 333 329 333 333 330 328 327 328 331 333 336 338 335 333 333 336 334 334 336 333 330 330 328 329 332 330 330 329 327 333 334 328 333 333 326 332 332 324 332 338 336 343 342 327 330 340 337 335 337 337 333 332 335 339 340 337 330 329 340 344 334 331 337 339 340 343 343 342 341 337 332 331 330 329 328
Wind_Speed
15 15 16 16 15 14 13 11 11 11 11 12 12 12 13 12 12 12 13 13 11 13 12 12 10 10 11 11 11 11 14 15 14 11 11 16 17 11 6 9 6 6 8 7 7 7 4 5 3 3 4 3 1 0 0 0 1 4 4 4 4 4 4 5 7 6 4 5 6 5 3 5 3 2 2 3 8 7 6 5 4 4 3 4 8 12 13 12
15 15 15 15 14 14 13 12 10 10 10 11 11 11 11 10 11 11 13 13 12 14 11 10 9 9 11 10 10 11 14 13 13 14 16 17 12 12 11 10 9 6 9 9 7 8 4 4 3 4 5 2 2 1 0 1 3 4 3 4 3 5 4 4 6 5 3 6 7 5 4 4 2 2 2 2 5 5 6 5 4 5 5 7 9 11 12 12
16 14 14 13 13 13 13 12 11 10 9 10 10 10 10 10 10 10 11 11 12 13 11 10 9 9 11 9 10 11 12 11 9 11 13 16 12 11 12 11 11 5 10 12 9 6 3 3 2 4 4 2 2 1 1 1 1 2 3 3 4 6 3 0 4 5 3 7 10 5 4 4 1 1 2 4 6 4 4 3 3 5 5 6 7 9 11 10
15 14 13 13 13 12 12 12 11 11 10 10 10 10 9 9 9 9 9 9 10 10 10 10 9 10 9 8 9 9 9 6 4 5 9 14 13 14 15 13 11 6 8 10 10 8 5 6 5 4 4 2 3 1 2 1 1 2 3 4 5 3 3 3 2 4 3 6 9 6 5 4 1 2 3 5 7 3 3 2 1 5 6 6 5 7 9 9
14 14 13 13 12 12 11 10 10 11 11 11 11 10 9 9 9 8 8 9 9 8 10 11 10 9 7 7 8 8 6 1 1 2 8 10 12 19 17 14 12 8 6 8 10 10 9 7 6 5 3 0 2 1 2 3 3 3 2 3 3 4 3 2 2 6 5 7 8 7 6 4 1 4 4 4 4 2 3 2 2 4 6 5 5 6 8 8
13 12 12 12 12 11 10 10 9 9 10 10 10 11 10 9 9 8 8 8 8 8 8 8 7 7 6 6 6 6 3 1 4 5 9 13 14 22 19 15 13 9 7 9 10 9 8 5 4 1 1 1 2 2 1 1 4 4 2 2 3 4 4 2 3 5 6 8 7 5 4 3 5 5 3 5 4 1 2 4 2 5 6 5 6 6 7 8
12 11 11 12 11 10 9 9 8 8 8 8 8 9 9 10 10 8 9 8 8 8 6 5 5 4 4 4 4 2 1 4 7 2 13 19 19 21 20 17 14 11 8 12 10 7 5 1 3 2 1 1 3 2 2 3 5 5 2 2 5 5 5 4 4 5 7 8 4 4 5 3 5 5 3 5 4 3 2 3 4 7 7 6 5 5 6 8
12 11 11 11 11 10 9 8 7 7 7 8 8 7 8 9 10 8 8 7 8 7 5 4 3 3 3 2 1 1 2 6 3 5 14 24 25 22 21 16 13 12 9 10 8 5 3 3 5 2 1 2 3 4 5 6 6 4 4 2 4 5 4 6 6 8 8 7 5 7 7 4 5 5 4 5 4 5 5 6 7 7 6 4 4 4 5 7
12 12 11 11 10 9 8 8 6 7 7 7 7 7 7 7 8 7 5 5 5 5 4 3 2 2 2 1 1 1 3 4 1 6 14 27 29 24 21 16 14 15 11 6 7 7 5 4 5 3 1 2 3 5 3 5 2 2 5 4 5 4 3 6 7 7 7 4 6 10 7 3 3 4 4 4 4 4 5 7 6 6 5 3 3 4 5 5
12 12 10 9 10 8 8 7 7 7 6 5 6 6 6 5 6 5 4 3 3 3 2 2 1 1 1 2 1 2 2 1 3 4 9 24 30 25 22 17 16 19 16 11 12 11 8 5 3 2 2 2 2 2 2 3 4 5 8 7 7 6 3 5 5 5 5 3 4 9 4 2 2 2 2 3 4 4 6 7 6 6 5 3 2 2 4 6
12 11 9 9 9 7 7 7 7 7 6 5 5 5 6 5 5 4 4 3 3 2 2 2 0 1 1 2 1 3 2 4 5 5 9 23 32 26 22 19 17 20 18 13 15 16 12 6 1 2 1 1 3 4 5 5 9 10 11 9 7 6 5 5 6 3 3 3 2 8 6 2 4 3 3 3 3 4 7 8 6 6 4 4 3 2 4 6
12 11 9 8 8 7 7 7 6 6 6 6 6 5 5 5 4 3 3 2 2 2 2 3 1 1 1 1 4 5 4 9 6 7 13 22 26 20 18 21 20 21 20 11 11 17 15 9 0 3 3 1 3 3 4 4 9 8 8 8 4 6 5 1 3 1 2 2 3 5 4 3 4 3 4 4 3 5 7 7 6 6 4 4 3 1 2 5
13 11 10 8 8 7 7 6 6 7 6 6 6 5 3 3 1 1 1 0 1 1 1 2 1 2 1 2 6 6 6 6 5 10 21 22 19 16 19 22 20 20 19 11 8 12 14 13 4 1 3 3 3 3 5 3 6 5 4 6 4 5 2 4 1 2 3 4 5 2 1 3 1 4 6 4 4 5 6 5 5 5 3 3 3 0 2 3
13 11 10 9 8 7 6 5 5 7 7 7 6 5 3 2 1 2 1 2 2 1 2 2 1 1 1 4 6 3 5 2 0 14 25 24 19 17 17 19 20 18 16 12 9 8 9 10 6 3 3 2 5 6 7 4 4 4 2 3 3 3 2 5 2 4 4 3 2 3 1 4 2 3 5 5 4 5 4 4 4 3 3 2 2 2 0 2
13 12 10 9 8 6 5 4 4 5 6 6 5 4 3 3 3 2 2 1 2 3 3 3 2 1 1 6 5 0 6 5 6 16 24 25 18 11 12 15 17 16 12 13 11 8 8 7 4 2 1 2 7 8 5 3 3 3 3 1 2 3 1 4 3 6 5 2 1 3 1 3 4 3 5 4 4 5 5 4 4 3 3 3 2 3 2 1
13 12 10 8 7 6 5 4 2 1 3 3 4 4 3 2 2 1 0 1 2 3 4 2 3 3 0 3 2 2 6 6 8 16 23 21 9 4 11 12 6 8 11 14 13 10 9 6 2 2 3 4 6 7 4 4 3 3 3 2 1 3 2 2 2 3 4 4 2 2 2 2 4 2 4 4 4 5 5 4 4 2 2 3 3 3 3 2
13 12 9 7 8 8 6 4 2 0 1 0 1 2 2 1 1 2 2 2 3 3 4 2 1 2 2 3 1 2 4 6 11 15 18 18 8 5 11 10 3 8 13 10 10 9 7 3 1 1 3 3 3 5 5 3 2 3 2 2 2 2 3 2 2 2 3 4 2 3 2 3 4 1 4 4 5 5 6 7 5 3 2 3 3 3 3 3
13 11 9 5 9 11 9 6 2 2 3 2 3 4 4 3 4 4 3 1 2 3 4 3 2 0 1 4 2 1 4 10 14 13 11 15 12 5 6 7 5 7 6 2 4 4 2 2 2 2 2 2 1 4 4 2 3 3 2 2 1 1 2 3 2 3 4 4 2 3 1 3 2 2 4 3 5 6 6 7 5 3 3 3 3 3 3 4
13 11 9 4 6 10 10 9 4 4 4 3 5 5 3 3 5 5 3 2 1 2 1 2 1 1 1 3 5 2 6 14 15 11 9 11 12 8 3 3 3 2 1 3 1 1 3 3 3 4 2 2 5 4 5 6 6 6 5 4 4 2 2 3 3 4 6 5 2 3 1 2 4 5 5 3 4 5 4 5 4 3 3 3 3 3 3 4
13 10 8 6 2 8 10 9 6 6 4 3 3 2 1 2 3 2 2 2 4 2 2 2 3 0 1 3 6 3 7 11 9 5 6 7 8 5 1 3 3 4 3 2 2 2 4 4 2 4 6 8 8 5 6 5 6 7 5 4 4 3 2 4 2 3 6 4 0 2 3 4 6 7 5 4 4 4 4 5 4 3 3 4 4 4 4 4
12 10 7 6 2 6 11 12 11 9 5 3 2 2 2 1 2 2 1 3 5 5 3 1 3 3 4 5 6 2 5 7 6 5 3 2 3 3 3 3 5 4 2 1 1 0 4 3 5 7 8 8 5 6 7 7 6 6 5 4 3 2 2 2 2 3 3 2 0 3 4 4 6 6 3 4 5 4 5 6 6 5 4 4 5 5 5 3
13 10 7 5 3 4 9 14 15 12 8 6 4 3 3 2 4 2 2 0 4 6 4 3 3 5 6 5 4 1 3 5 4 4 3 3 4 3 1 3 5 3 3 2 3 4 3 2 7 6 6 5 5 5 7 7 6 5 4 5 2 2 1 3 2 3 2 2 1 3 3 3 5 5 3 4 5 4 5 7 6 6 5 5 5 5 5 4
14 11 8 5 3 3 5 8 12 12 11 7 5 5 4 2 4 2 5 1 2 2 3 3 2 3 4 2 1 2 3 4 3 0 3 5 2 3 2 4 5 4 4 4 1 2 1 5 6 4 7 7 5 4 6 6 4 3 4 4 2 3 3 1 0 2 3 2 3 4 2 2 2 2 3 4 5 3 4 6 6 6 6 6 6 6 6 7
15 11 8 5 2 2 3 4 6 9 11 9 10 10 6 4 5 6 5 2 1 1 3 2 2 2 4 3 3 4 3 2 3 0 1 3 4 5 3 4 5 5 4 1 3 4 4 5 1 5 7 7 6 5 6 5 1 0 3 5 3 4 4 3 2 2 3 4 2 5 3 4 2 3 4 4 4 3 3 5 6 5 5 5 5 6 7 8
17 12 8 5 2 2 4 4 5 8 7 9 12 11 7 6 10 8 2 3 2 3 0 2 3 1 1 0 1 2 1 3 3 2 3 6 6 2 3 2 3 1 5 4 4 5 8 6 3 5 3 5 6 4 5 6 3 2 3 5 6 6 5 5 6 4 4 3 1 3 2 5 2 3 6 3 4 5 4 5 7 7 6 5 5 6 7 7
19 12 7 5 1 5 6 2 5 6 4 7 9 10 11 7 6 8 2 5 4 5 5 6 5 2 1 1 2 2 4 3 4 4 5 6 9 6 2 0 1 4 5 5 3 3 5 3 3 5 5 5 5 2 3 6 6 1 4 6 8 9 9 8 7 4 2 2 2 3 3 3 4 3 7 5 6 8 6 6 8 7 7 7 7 7 7 7
19 14 8 5 3 6 6 1 4 8 4 4 3 11 14 9 2 9 3 6 3 3 4 4 3 2 3 1 3 4 3 2 4 5 1 8 8 6 4 3 2 4 4 2 1 2 3 2 5 5 5 5 4 2 4 7 7 2 4 6 10 10 9 8 6 4 2 2 2 3 3 1 4 4 5 6 7 8 7 8 9 8 9 9 9 8 8 9
20 16 9 5 5 8 8 2 6 7 5 4 1 11 11 2 7 6 5 5 1 2 1 2 1 4 4 3 3 3 4 5 3 5 8 14 11 4 4 8 5 5 2 2 3 5 3 1 3 6 5 4 3 4 8 10 5 3 1 7 8 8 7 6 6 3 1 2 3 3 2 1 4 5 2 4 7 8 10 12 12 10 10 10 10 9 9 9
20 17 11 6 5 8 10 8 9 7 5 4 8 10 1 11 8 4 5 3 2 1 2 1 1 2 2 3 3 2 3 5 4 6 5 8 10 4 4 8 5 4 3 1 4 5 1 3 6 7 5 4 2 1 7 9 4 2 6 10 8 7 6 5 5 3 2 2 3 5 4 2 4 4 1 3 5 9 11 11 12 12 11 11 10 10 10 9
19 17 14 8 5 7 9 13 12 7 5 9 12 2 13 11 4 5 4 1 0 2 2 1 0 1 2 3 2 0 3 3 3 3 0 2 4 2 2 3 2 3 2 2 3 4 3 2 3 5 4 5 4 5 3 7 9 7 7 9 7 5 4 4 3 3 3 2 4 6 6 4 2 4 3 5 5 8 10 8 9 10 10 11 10 9 10 9
19 17 16 10 7 6 5 7 9 9 9 14 9 8 12 3 4 6 2 1 1 1 2 1 1 2 4 4 2 2 3 3 1 3 3 2 1 1 1 1 3 3 3 3 1 4 6 3 1 1 2 6 8 7 5 5 7 6 5 6 5 4 4 4 3 3 2 3 5 3 4 4 1 5 5 7 6 5 8 10 11 13 12 12 10 9 10 9
18 17 18 14 10 11 8 6 12 15 16 15 4 7 5 4 4 3 1 1 1 3 2 2 2 3 3 2 2 2 3 3 1 3 5 1 2 2 1 2 1 3 4 2 1 5 5 1 1 1 1 4 8 7 5 5 4 5 5 5 5 3 3 2 2 1 1 4 3 1 3 2 4 7 7 9 10 8 9 11 13 14 14 12 11 10 9 9
17 17 19 16 13 14 13 12 15 16 17 11 1 4 6 5 2 1 2 1 1 2 1 1 3 3 2 2 2 2 1 2 1 1 2 2 1 4 2 1 4 3 1 3 0 3 3 5 2 3 1 0 6 7 3 0 1 5 5 4 4 3 3 1 2 2 2 3 2 1 2 1 4 6 7 10 11 11 11 10 11 13 14 14 13 11 9 9
16 17 16 14 14 14 12 12 12 13 14 7 4 5 7 5 1 2 2 2 2 2 2 1 3 4 4 3 2 3 3 1 0 2 1 2 2 3 3 1 2 4 3 2 1 1 1 3 1 4 2 2 3 4 6 5 3 3 3 5 4 4 3 2 3 2 2 2 2 2 1 2 2 3 6 8 8 7 8 8 7 9 10 10 9 9 9 9
15 14 12 12 12 10 8 7 7 8 8 5 7 6 5 2 3 1 2 3 1 2 3 2 3 5 5 3 3 2 2 1 1 3 2 2 3 3 2 2 2 3 4 3 2 1 2 3 6 4 3 4 3 2 5 7 4 2 2 4 1 3 4 1 1 4 2 1 1 1 2 4 4 4 3 3 4 1 5 6 6 7 7 8 8 9 9 9
13 11 10 10 9 7 5 3 4 5 3 6 7 4 2 3 3 3 3 2 1 1 2 4 5 5 4 4 3 4 3 1 2 3 1 1 1 2 2 3 4 3 4 4 2 1 2 3 5 3 1 4 5 4 4 4 3 2 1 2 4 4 7 4 0 1 3 1 1 1 3 5 3 3 4 5 5 4 5 6 7 7 8 9 9 9 10 10
12 9 7 7 7 6 3 1 4 4 3 7 6 2 2 3 3 4 2 0 1 1 3 3 2 2 1 2 3 5 4 3 3 2 1 2 1 2 2 3 3 3 4 4 1 2 3 2 6 1 2 1 3 4 4 3 5 4 2 4 3 2 4 4 1 3 4 0 3 2 3 5 2 2 4 5 5 3 3 5 6 7 9 10 10 10 11 11
12 8 4 5 7 4 1 2 5 3 4 6 3 1 1 2 2 3 2 1 1 3 5 2 0 1 1 0 2 5 4 3 3 2 0 1 1 2 1 2 1 1 3 5 2 1 3 0 6 2 2 2 3 6 4 4 3 5 4 3 3 2 0 1 1 0 1 1 3 3 4 3 2 3 4 1 3 4 4 5 6 8 10 10 10 10 10 9
8 4 2 6 7 1 3 1 4 4 6 5 1 1 1 2 3 2 3 2 2 4 3 2 1 1 1 1 1 3 3 1 2 1 1 0 0 1 1 0 2 4 1 4 3 1 2 2 4 5 1 1 3 4 1 3 2 3 2 2 2 2 3 2 1 2 1 0 2 3 4 3 5 5 4 6 7 8 7 7 8 10 11 10 10 10 10 10
3 1 1 8 6 4 3 3 4 6 5 3 3 2 1 2 2 1 1 1 1 2 1 3 1 1 1 0 0 2 2 1 0 0 1 0 0 1 1 1 1 5 3 3 3 2 3 3 2 5 2 3 1 2 5 6 3 1 2 0 1 1 2 1 1 1 2 2 2 1 3 5 6 4 6 8 7 9 10 10 9 10 11 10 10 10 10 11
3 2 3 8 5 4 2 6 4 4 3 2 1 2 1 1 0 2 2 2 2 1 2 4 3 1 1 0 1 1 2 2 1 1 0 1 1 0 2 1 1 4 3 4 2 2 2 3 2 2 1 2 4 5 5 8 7 5 4 4 3 3 3 1 2 3 1 2 3 2 1 6 6 3 5 6 5 7 10 10 9 9 11 10 10 11 11 12
4 1 3 7 4 3 4 5 1 2 3 3 1 2 1 1 1 1 2 3 3 1 2 3 2 2 2 1 0 1 1 1 1 1 0 2 2 3 2 2 3 2 1 2 1 2 3 4 3 1 3 5 7 5 2 5 5 5 3 3 4 3 4 4 2 3 1 2 1 3 0 6 6 3 5 5 5 6 7 8 8 8 10 10 9 10 10 11
3 2 2 8 4 3 6 4 2 3 1 2 1 1 0 1 1 1 2 2 2 1 2 1 1 1 1 2 1 1 1 0 1 0 1 2 3 5 3 3 5 1 3 1 1 0 2 3 2 2 4 4 6 4 3 3 4 5 1 2 4 3 3 5 4 3 3 2 2 2 1 6 6 3 4 5 4 5 6 7 7 7 7 8 9 9 10 9
1 3 2 8 4 4 4 2 1 1 2 2 2 1 2 2 1 1 1 1 1 2 2 0 1 0 1 1 1 1 1 1 1 2 1 1 3 5 3 5 6 2 1 2 2 1 0 1 2 2 4 6 6 5 5 4 1 2 2 1 4 4 5 4 2 3 1 3 5 4 3 6 6 4 4 4 2 2 4 6 6 6 6 7 8 8 8 8
1 1 3 7 6 5 3 3 5 3 1 1 2 1 2 2 1 1 2 1 0 3 2 1 1 1 0 1 3 2 1 2 1 2 2 1 3 4 5 9 7 3 2 3 3 3 2 2 3 4 2 2 1 2 3 3 2 1 2 1 3 5 7 4 2 3 1 3 4 5 4 6 7 6 6 6 4 1 3 4 4 6 6 7 8 8 8 8
2 1 2 5 6 5 2 1 4 4 2 3 2 1 2 2 2 2 2 1 0 2 2 2 1 2 2 4 4 3 3 1 0 1 2 3 3 3 6 8 6 7 8 4 3 4 4 2 2 6 6 6 6 6 5 3 2 3 3 2 3 4 6 5 3 2 4 3 2 5 6 4 8 7 5 6 4 3 3 3 4 5 6 6 7 8 7 8
2 1 0 0 2 4 3 3 4 3 2 3 2 1 1 0 2 2 2 1 1 2 2 2 2 2 1 3 3 0 2 3 2 1 1 3 3 4 7 4 2 8 11 7 3 3 4 1 1 5 6 7 8 7 4 1 2 5 4 3 4 4 6 6 4 5 5 5 4 7 5 4 7 7 6 7 6 5 5 5 6 6 6 5 5 6 7 7
2 2 1 1 0 1 2 3 3 3 3 3 2 0 1 2 1 0 1 2 2 2 2 2 4 2 1 2 3 1 2 3 3 1 2 3 3 4 6 3 1 5 8 6 4 3 5 0 1 2 4 6 4 4 3 2 2 3 5 6 5 6 7 7 6 6 7 6 6 6 7 6 7 7 7 8 7 6 5 5 5 4 5 5 6 8 8 9
2 2 1 1 1 2 2 2 2 4 4 3 1 1 1 2 1 2 1 2 3 2 2 1 3 3 2 2 4 2 0 1 1 3 2 1 3 3 4 3 2 3 7 6 4 2 4 1 1 1 4 7 5 4 2 3 2 3 5 6 5 7 9 8 5 4 6 6 5 5 6 8 8 7 8 7 5 5 3 3 4 4 6 7 8 9 9 9
2 1 1 2 3 1 1 3 3 4 3 3 2 2 1 3 2 2 1 2 1 2 2 2 4 2 0 2 5 2 4 6 3 4 3 1 3 1 0 2 3 4 6 4 2 3 2 1 1 3 3 7 6 6 3 1 3 4 5 4 2 4 4 4 2 4 3 4 3 6 3 7 7 6 6 4 2 4 3 4 5 5 6 7 8 8 9 10
3 2 0 3 2 3 3 3 3 4 2 2 1 1 0 1 2 1 1 1 2 2 1 3 4 1 2 2 3 1 5 6 6 7 6 4 4 3 2 2 2 4 6 2 1 4 3 1 1 5 3 6 5 7 7 3 3 2 7 6 3 4 3 3 3 5 5 4 3 3 1 6 6 4 3 2 2 4 4 4 4 4 6 8 9 9 10 10
6 2 1 3 2 3 2 2 3 3 2 1 1 1 0 2 2 1 1 2 2 1 3 4 4 3 3 1 2 5 6 6 7 9 7 5 6 5 4 4 3 2 3 1 2 2 1 2 1 3 1 5 5 5 5 4 6 4 7 5 6 5 3 2 2 4 6 6 6 4 5 6 4 3 2 2 2 4 6 5 5 5 7 8 9 10 10 10
Wind_Direction
305 302 298 293 292 296 299 298 294 296 296 295 292 290 295 301 301 301 301 302 300 294 292 293 296 300 301 306 309 304 301 299 300 287 251 243 230 221 200 180 173 119 113 116 78 55 42 42 75 82 70 64 18 224 110 28 63 62 72 96 132 173 191 183 177 186 170 167 174 169 142 121 137 119 143 77 65 83 89 80 71 74 90 90 97 110 113 118
306 303 300 296 290 291 296 297 296 294 293 292 290 287 289 292 295 293 292 297 297 294 293 294 297 304 305 310 310 299 301 303 295 280 250 238 230 222 215 188 180 128 95 109 73 41 41 33 59 75 54 28 331 10 69 296 73 88 103 103 170 197 192 184 173 180 170 155 150 149 138 111 129 145 137 93 86 104 100 92 98 95 97 94 97 109 111 116
311 306 302 301 294 291 290 289 290 291 290 288 285 284 284 283 286 281 280 283 285 293 299 300 303 302 306 310 308 300 304 313 289 266 234 216 210 202 196 180 187 155 85 93 80 56 59 2 12 76 54 358 307 69 116 347 70 125 110 107 219 207 167 74 163 175 180 148 138 136 130 95 68 101 102 116 113 115 121 123 123 130 138 116 105 111 114 117
314 311 305 304 298 294 292 288 284 283 287 289 287 291 291 289 290 286 285 284 282 294 300 302 303 293 299 305 301 304 309 316 275 244 184 197 203 186 180 171 176 157 92 85 85 76 46 352 353 67 68 339 316 31 153 209 165 113 94 155 214 168 109 350 120 134 105 127 132 128 118 107 64 56 81 116 113 129 164 154 175 158 154 137 122 111 113 116
316 314 310 308 302 298 296 292 286 282 284 284 286 290 292 290 291 291 288 290 291 294 295 297 302 299 297 297 295 306 315 102 310 330 150 183 190 173 174 174 171 152 114 90 81 64 36 5 1 38 66 251 310 39 196 208 127 77 38 159 159 114 110 339 76 103 94 100 106 118 128 133 82 51 62 93 105 175 200 254 263 147 142 144 132 111 109 108
316 314 312 311 306 300 297 294 292 289 282 277 279 280 281 281 284 288 285 293 299 292 292 289 296 307 295 288 291 307 317 165 331 351 145 160 166 165 169 175 165 146 120 93 83 64 44 8 340 353 45 170 174 129 198 246 99 94 25 34 57 92 118 106 69 77 99 102 105 133 138 113 91 75 58 74 84 103 232 243 227 115 115 127 117 103 105 106
320 319 314 311 309 305 300 297 293 291 284 271 271 274 272 271 272 276 278 285 285 282 290 284 289 298 290 292 284 306 307 270 315 30 142 143 153 162 162 167 159 148 126 91 85 71 67 277 255 204 127 141 171 131 88 50 65 95 106 27 48 71 87 84 77 73 83 94 112 124 92 67 94 106 74 68 68 31 47 153 120 99 95 101 104 91 100 111
328 326 317 310 308 307 305 297 288 291 289 267 260 267 267 266 266 268 274 276 266 265 271 274 290 274 280 323 286 296 238 260 324 104 142 142 149 158 156 163 163 147 116 95 106 105 113 219 228 194 135 193 166 142 124 74 42 79 116 114 71 62 63 71 79 83 80 85 96 85 73 61 91 110 96 72 63 39 53 91 95 91 82 83 105 97 102 112
334 329 322 316 310 307 306 299 287 292 294 270 255 265 274 264 258 258 260 268 254 250 259 258 274 255 268 332 341 305 253 252 85 114 145 149 153 158 158 163 164 142 117 127 157 155 173 206 213 207 245 255 125 134 142 84 63 121 105 104 93 74 61 75 74 81 88 93 92 84 72 56 81 90 82 71 80 75 68 81 91 96 99 101 97 99 110 116
337 331 328 325 318 311 310 308 297 295 299 280 258 263 274 256 253 247 222 241 242 235 241 204 242 235 274 309 135 156 293 14 151 140 145 157 157 162 168 169 168 152 143 174 187 184 192 190 204 213 225 249 87 62 341 104 130 115 96 83 83 84 43 61 81 88 89 59 78 104 109 336 15 61 96 89 93 100 87 90 102 108 123 132 107 118 121 118
343 338 331 329 328 320 316 316 308 301 298 294 281 265 263 254 256 234 202 233 240 222 196 172 138 4 327 328 152 200 323 68 142 144 147 162 158 162 176 177 176 167 160 175 193 199 203 203 265 5 221 209 83 41 18 98 111 109 107 79 48 65 50 56 97 114 78 46 74 116 121 350 17 57 120 109 90 97 95 100 112 121 130 132 140 182 125 116
347 340 333 331 328 320 313 312 314 313 303 297 284 267 264 262 262 234 219 255 231 189 176 159 103 348 336 325 233 213 108 77 87 130 146 155 152 159 180 181 184 185 178 172 196 210 213 217 27 10 280 83 101 86 58 97 103 104 104 89 46 45 49 41 110 131 68 113 195 116 79 351 14 86 120 99 87 95 99 108 119 126 125 121 142 245 73 100
348 342 339 334 325 316 313 314 321 318 309 300 285 278 280 266 275 269 254 337 180 169 172 150 107 327 357 260 238 191 138 52 32 145 145 143 152 176 189 186 190 197 194 189 206 219 222 223 205 284 270 87 108 132 107 91 83 80 55 92 105 47 36 237 166 105 93 143 195 109 6 292 6 116 120 109 111 107 106 117 124 128 123 121 138 351 19 70
349 346 345 340 334 323 320 328 328 319 313 307 295 287 294 307 355 358 39 95 116 132 157 150 117 25 60 262 265 202 201 284 280 167 157 153 166 187 194 191 196 202 208 214 215 214 216 217 206 240 280 115 129 111 94 47 42 81 50 58 95 91 222 248 195 141 123 158 178 78 157 251 257 130 118 128 130 120 122 125 136 139 126 128 132 138 19 40
349 348 349 348 348 346 353 351 323 315 311 303 304 304 312 338 348 358 38 87 112 134 164 175 215 216 4 280 297 57 176 169 176 184 177 172 167 175 190 191 198 202 211 222 221 212 194 184 179 201 293 102 119 106 83 34 23 68 98 348 5 107 214 280 215 170 146 167 21 58 130 270 259 166 121 131 130 126 139 146 157 150 126 131 139 148 145 39
349 348 352 360 9 21 33 16 345 306 298 289 309 322 326 336 342 31 82 187 139 151 183 183 207 200 241 287 315 102 162 159 174 185 189 187 156 124 177 172 181 217 230 230 225 215 190 171 161 145 107 97 112 113 88 57 11 359 97 180 258 114 144 276 235 194 146 125 38 27 153 233 272 189 120 122 130 134 147 159 163 153 139 144 159 164 145 121
350 350 356 26 51 49 45 35 34 172 195 154 338 354 25 67 116 121 140 167 168 187 199 205 237 207 258 294 286 160 157 139 154 170 187 191 166 115 154 148 139 230 240 231 209 199 181 171 146 87 72 86 115 109 85 45 305 308 56 124 211 144 147 197 261 225 124 109 71 43 117 216 276 218 137 126 133 139 154 166 167 162 159 161 171 167 152 152
351 352 354 41 87 83 76 74 61 203 173 133 98 73 73 103 104 99 97 111 184 198 204 230 280 74 343 321 311 188 121 117 137 152 171 186 194 194 157 148 158 202 235 203 176 183 130 44 75 101 48 56 115 98 105 201 196 185 169 129 177 152 149 188 231 205 131 87 109 99 88 241 258 168 149 135 142 149 163 169 171 170 162 175 181 167 163 163
351 352 351 7 120 123 111 108 134 188 171 144 116 94 99 124 94 78 45 343 212 176 187 209 232 74 117 303 308 306 113 117 129 147 161 172 191 214 196 136 134 145 27 63 129 195 106 67 81 124 129 171 200 168 158 185 160 157 169 141 148 155 208 219 237 202 144 95 108 136 142 209 185 179 172 153 145 148 165 170 168 176 168 173 180 179 172 171
346 348 349 341 158 166 162 150 172 203 181 147 135 106 143 154 81 52 323 280 226 240 7 159 180 303 317 298 319 349 102 108 108 136 164 156 162 175 53 33 44 43 34 80 180 202 99 106 174 186 185 195 200 170 134 132 122 127 127 116 144 153 227 239 232 192 145 111 68 139 138 182 186 192 185 159 147 149 169 178 180 184 182 179 180 186 181 184
342 344 340 327 297 195 192 192 208 225 215 203 222 180 187 210 77 57 257 235 244 262 316 259 205 289 291 285 315 357 83 73 48 45 100 109 58 52 15 9 39 32 331 264 183 235 69 113 220 220 202 192 170 134 112 98 88 97 117 122 128 163 230 262 156 161 134 99 147 131 141 197 202 202 196 153 161 179 183 184 188 193 198 190 180 187 185 181
343 339 334 322 299 231 207 207 214 226 228 236 260 237 255 251 144 84 26 232 266 244 236 260 249 285 279 265 273 213 83 64 60 43 108 123 28 17 3 38 53 10 316 25 17 354 33 239 244 218 182 134 109 114 101 93 88 82 103 118 127 205 176 17 65 115 57 55 180 146 143 230 228 216 223 181 176 194 196 193 192 188 194 195 188 188 179 166
346 338 333 323 288 241 229 221 214 222 226 231 251 243 289 288 188 345 13 73 293 229 199 234 222 301 323 305 209 131 77 84 115 10 193 156 53 18 61 46 27 356 6 47 8 330 34 258 262 181 152 122 103 116 98 86 83 89 114 123 178 209 140 62 7 79 50 65 155 144 106 301 245 211 242 214 189 194 198 200 205 193 193 198 191 185 177 175
347 343 331 321 321 208 232 218 200 218 227 239 255 258 282 293 266 326 16 134 326 9 184 178 122 25 356 359 50 65 48 80 113 136 241 111 46 8 27 58 30 358 330 277 211 236 254 252 265 100 139 136 119 139 132 119 107 166 158 153 177 185 163 162 151 101 44 37 110 116 45 318 212 185 238 218 185 217 200 189 211 218 209 202 186 185 188 183
346 346 332 322 346 173 178 163 199 220 228 243 264 287 305 286 275 288 19 89 13 353 49 83 46 0 339 353 98 94 87 44 55 92 80 94 104 39 333 70 71 292 258 239 205 244 266 244 143 102 128 135 128 161 173 153 148 299 228 181 158 149 139 121 119 95 43 4 284 105 48 298 273 211 230 203 181 217 202 187 210 216 209 202 191 193 196 191
343 342 333 321 286 162 158 172 219 204 201 246 280 333 342 327 269 230 170 59 30 354 349 12 13 307 300 282 178 78 62 39 4 46 75 117 146 154 214 1 144 217 219 204 188 234 259 260 132 146 153 141 136 173 200 152 125 321 247 171 134 126 129 133 132 108 87 241 276 85 123 270 311 260 223 191 194 218 211 206 214 208 202 203 201 197 192 192
338 336 332 306 249 164 168 197 168 173 198 248 320 352 334 327 192 183 121 43 31 335 320 351 18 220 258 292 134 92 91 97 4 1 160 190 181 157 188 234 231 215 194 139 10 261 223 22 62 124 126 131 146 201 201 148 126 241 252 143 127 127 136 140 124 103 159 202 343 37 118 218 300 270 231 179 186 220 223 222 221 209 204 204 204 199 189 191
334 332 327 294 250 202 207 204 163 196 238 209 281 336 322 256 154 148 80 64 292 296 291 298 256 212 260 338 73 111 142 113 59 289 231 205 202 156 195 232 226 222 207 113 286 267 205 114 133 136 109 142 193 214 175 136 110 265 229 115 119 117 122 121 101 93 114 83 336 302 129 152 267 281 304 162 187 225 224 220 219 211 207 204 202 198 191 191
331 328 321 305 262 226 231 234 221 245 271 258 311 327 135 146 135 75 69 99 270 315 90 9 282 227 300 4 43 90 135 115 153 234 242 211 208 179 203 229 218 224 242 156 232 251 267 212 172 136 129 181 212 206 159 129 110 182 105 92 84 79 85 82 89 99 49 39 274 243 175 151 271 277 36 138 202 229 222 218 215 211 208 204 201 196 189 187
328 323 319 303 252 241 243 241 252 286 296 308 328 58 141 135 92 51 49 53 291 189 148 69 242 301 24 67 67 141 183 197 197 187 136 238 216 180 225 230 142 187 258 6 221 244 318 279 152 120 156 171 105 64 82 108 122 131 99 85 74 51 48 50 60 78 54 337 271 236 188 150 287 272 200 176 217 219 208 210 211 208 208 204 202 195 187 186
325 318 313 292 251 253 239 243 294 328 318 321 341 136 141 88 55 84 74 296 61 301 331 342 282 26 54 91 144 195 186 215 230 153 183 251 298 40 23 332 47 59 1 6 264 302 352 20 28 27 137 119 95 68 40 68 105 106 89 95 84 21 11 30 3 30 75 260 275 252 180 134 215 265 225 218 247 223 193 200 201 201 203 202 200 194 187 185
324 312 302 289 260 250 246 278 314 322 319 321 351 129 113 26 39 86 266 306 357 310 326 295 291 17 35 68 162 203 168 172 186 164 178 198 272 242 152 188 169 31 342 293 310 343 351 343 333 8 51 106 103 85 44 12 33 83 99 92 79 30 12 22 330 344 188 245 274 185 147 135 237 253 246 237 246 232 205 203 199 195 195 196 196 193 186 180
320 305 297 287 264 258 271 299 310 317 322 320 25 82 67 70 49 263 268 326 315 272 288 264 299 356 18 41 21 317 91 134 143 149 159 83 294 272 312 157 158 112 278 223 22 357 331 319 23 100 303 306 114 115 128 269 79 133 132 109 107 99 59 341 273 293 265 263 291 198 177 285 275 267 250 234 237 228 212 206 199 192 191 192 191 185 178 178
317 302 295 284 272 276 291 305 307 315 327 347 71 54 62 81 250 240 274 285 256 310 337 310 322 359 27 48 342 325 51 61 16 88 70 82 127 266 307 322 142 114 122 160 172 137 125 307 262 151 218 217 131 142 153 138 126 160 153 119 130 148 140 225 233 213 248 266 322 331 188 201 230 255 238 233 254 241 207 195 187 187 189 183 176 171 171 179
319 302 293 282 278 290 302 309 318 318 326 27 66 57 77 119 247 219 255 260 259 323 317 342 29 35 14 352 314 337 55 349 339 60 47 95 157 219 250 247 208 133 119 141 201 126 97 255 247 250 246 174 159 175 135 104 96 189 147 104 133 182 143 90 186 174 183 188 318 295 224 217 222 254 277 289 306 249 168 164 155 162 165 156 163 174 175 180
323 308 294 280 279 302 314 328 354 331 342 70 66 55 115 195 205 175 212 224 144 275 320 2 36 56 0 325 333 343 350 353 27 46 17 38 175 224 249 244 217 163 137 145 185 152 81 283 277 313 338 172 177 177 132 109 135 155 118 180 230 172 123 102 172 98 73 110 272 267 262 294 309 299 327 11 26 67 123 148 156 159 157 160 177 183 178 182
326 315 291 282 297 307 301 18 6 342 47 80 84 106 217 208 176 178 201 130 124 109 76 42 27 62 355 319 324 329 343 10 19 26 332 339 243 234 287 275 235 187 169 155 158 175 139 281 294 331 90 230 183 121 60 57 119 121 187 212 200 112 93 103 125 8 41 169 285 307 266 297 345 316 325 16 50 79 141 156 157 158 164 175 187 185 182 183
327 318 282 297 318 301 205 50 -0 5 72 70 76 173 219 187 182 200 186 126 112 72 71 88 105 101 169 166 305 314 350 10 0 27 38 328 243 202 283 286 281 5 160 143 86 69 128 352 300 285 129 325 17 81 41 352 77 116 179 181 112 115 246 69 113 1 38 311 296 309 297 279 205 230 286 292 174 185 185 171 167 174 180 186 189 186 182 176
331 331 300 336 340 175 148 23 3 48 70 70 101 208 218 217 241 220 168 147 101 78 77 191 180 58 154 147 240 301 357 24 346 38 135 8 30 176 91 142 315 349 61 133 126 140 105 93 294 290 209 43 27 78 175 272 353 61 94 66 58 134 164 150 139 168 161 326 286 313 332 290 230 222 215 220 208 184 179 188 191 190 190 190 187 181 177 175
358 48 279 346 2 146 149 3 31 59 69 110 175 209 229 228 260 337 82 100 109 94 122 193 170 64 212 210 241 296 2 82 243 38 156 254 38 293 300 149 312 332 4 80 115 131 69 97 234 293 330 101 100 215 190 187 186 102 96 206 287 72 135 166 29 77 130 141 182 300 325 275 252 210 194 223 218 186 184 192 197 198 194 194 188 180 179 181
64 47 283 346 11 155 96 28 46 67 93 130 170 218 239 203 147 9 355 51 93 150 152 150 149 131 173 51 23 280 338 26 349 39 333 258 129 268 284 145 30 327 6 42 62 141 115 124 171 294 338 158 234 243 190 176 176 158 166 199 189 146 130 128 319 317 84 119 165 160 275 273 260 198 205 231 217 201 199 192 194 199 195 195 191 184 183 182
82 65 287 355 356 183 68 44 15 55 112 145 177 207 262 42 96 34 347 34 58 75 79 104 127 115 145 154 10 232 5 7 318 62 147 238 180 194 237 41 5 301 131 50 306 182 132 114 114 270 238 222 250 260 163 169 157 130 157 188 146 135 124 129 226 263 103 80 124 117 206 272 264 215 221 242 227 220 215 198 197 200 194 193 192 187 186 185
97 198 303 7 0 171 71 49 323 11 96 225 262 231 320 40 62 18 16 28 37 64 41 53 171 119 167 200 180 135 119 189 231 251 241 239 241 238 235 21 359 347 117 106 272 102 73 82 87 296 298 303 298 321 52 83 101 109 171 164 138 158 142 147 185 180 137 157 143 94 285 272 276 267 252 260 244 219 218 209 200 197 193 189 187 188 188 185
128 224 291 3 17 146 95 90 166 27 281 290 5 357 351 50 76 31 57 29 19 110 88 74 189 180 237 185 130 166 165 138 257 301 289 202 263 273 307 6 359 11 141 214 209 138 54 117 99 50 345 342 340 352 1 344 356 168 236 204 153 131 101 116 138 89 121 210 152 133 243 257 271 301 320 320 338 180 216 218 200 192 191 187 186 188 185 176
67 221 278 348 26 90 108 159 154 143 224 35 47 10 13 36 10 40 111 133 138 138 131 350 96 106 34 45 32 3 55 114 229 314 334 296 288 301 342 351 345 328 287 228 178 136 144 165 127 120 176 230 238 272 265 266 279 262 268 229 169 129 120 147 134 89 227 233 145 151 223 260 291 320 338 343 4 0 240 230 211 199 188 186 183 181 180 174
101 140 284 332 18 54 67 117 109 113 137 109 76 0 52 64 313 337 88 103 78 110 86 353 56 80 43 50 44 358 348 13 259 345 339 308 292 285 317 329 326 337 359 38 94 91 108 160 152 141 168 192 195 222 228 173 153 243 254 234 188 144 128 123 103 136 189 174 182 215 207 256 299 303 307 312 310 267 244 224 220 210 193 191 185 178 178 174
101 142 102 312 354 25 38 18 42 73 154 135 112 320 333 39 308 333 34 64 87 83 67 15 36 60 43 71 85 330 318 342 2 35 296 294 280 280 300 302 296 347 7 25 14 56 99 291 262 150 186 214 205 220 234 156 205 222 225 231 206 160 128 126 159 205 166 130 265 256 189 197 269 265 258 269 263 247 231 213 219 212 190 182 167 160 164 163
87 149 143 152 246 49 68 8 29 79 75 93 117 19 354 27 33 283 346 28 43 59 77 23 10 6 220 124 106 105 343 359 354 338 313 315 313 318 330 332 202 2 17 15 345 72 117 341 324 151 254 261 237 251 244 210 245 219 207 223 204 163 163 178 203 201 158 162 241 237 174 196 248 249 239 241 233 233 227 202 201 186 161 153 152 161 168 167
64 96 312 5 98 155 187 325 29 92 66 42 60 52 87 109 119 243 260 41 12 356 83 107 300 299 267 147 119 113 164 120 339 300 263 300 318 334 350 336 295 12 32 21 348 72 121 333 329 112 313 302 310 320 257 202 261 262 232 229 203 179 187 197 204 183 179 214 227 174 180 231 247 233 235 242 223 215 204 154 155 162 162 165 169 174 178 177
41 67 317 27 55 52 325 359 51 90 47 20 58 60 114 152 182 270 279 101 115 309 50 142 230 264 299 146 121 121 200 174 181 254 214 204 314 289 280 278 274 352 18 31 340 350 45 320 262 89 9 307 320 354 352 200 210 248 279 292 206 182 196 205 186 162 194 249 205 137 172 262 263 237 244 265 191 164 163 153 158 173 173 172 178 184 185 185
350 263 198 91 54 351 351 8 53 87 44 6 95 105 34 202 208 254 287 145 159 197 188 177 192 129 51 85 104 239 230 187 193 227 216 209 247 229 212 230 226 345 354 16 355 350 38 43 342 59 40 290 310 358 341 348 74 315 304 302 227 193 198 209 195 178 184 187 150 126 219 260 267 264 257 276 139 162 195 180 161 185 187 178 185 193 193 191
350 305 32 96 86 358 0 9 34 84 121 292 256 212 251 275 289 17 322 323 14 142 177 161 144 100 39 355 257 245 234 214 223 237 230 224 238 236 235 242 233 281 308 346 16 338 83 95 32 62 54 274 297 345 332 9 41 338 282 245 214 218 227 239 246 209 188 154 141 188 227 237 262 273 230 225 202 213 225 201 175 194 196 191 198 198 196 197